Regional Weather Roundup
Issued by NWS

Home | Current Version | Previous Version | Text Only | Print | Product List | Glossary On
Versions: 1 2 3 4 5 6 7 8 9 10 11 12 13 14 15 16 17 18 19 20 21 22 23 24 25 26 27 28 29 30 31 32 33 34 35 36 37 38 39 40 41 42 43 44 45 46 47 48 49 50
000
ASUS44 KOUN 290810
RWROK

WEATHER ROUNDUP FOR OKLAHOMA
NATIONAL WEATHER SERVICE NORMAN OK
300 AM CDT WED MAR 29 2017

NOTE: "FAIR" INDICATES FEW OR NO CLOUDS BELOW 12,000 FEET WITH NO
      SIGNIFICANT WEATHER AND/OR OBSTRUCTIONS TO VISIBILITY.

OKZ001>007-009>012-014-015-017-290900-
NORTHWEST OKLAHOMA AND THE PANHANDLE

CITY           SKY/WX    TMP DP  RH WIND       PRES   REMARKS
GUYMON         CLOUDY    44  44 100 N20G25    29.82F
ENID/WOODRING  LGT RAIN  52  52 100 N9        29.78R
$$

OKZ016-021>023-033>039-044-045-290900-
SOUTHWEST OKLAHOMA

CITY           SKY/WX    TMP DP  RH WIND       PRES   REMARKS
LAWTON/REGL    LGT RAIN  53  52  96 N16       29.72F
LAWTON/FT SILL LGT RAIN  52  52 100 N13       29.71F
FREDERICK      CLOUDY    54  53  97 N8        29.73R
CLINTON        LGT RAIN  51  49  92 NE15      29.77F
HOBART         CLOUDY    52  50  93 NE13      29.74F
ALTUS AFB      DRIZZLE   52  49  90 N8        29.74R
$$

OKZ018>020-024>031-290900-
CENTRAL OKLAHOMA

CITY           SKY/WX    TMP DP  RH WIND       PRES   REMARKS
OKLAHOMA CITY  TSTM      52  51  97 NW18      29.74F FOG
OKC/WILEY POST TSTM      52  52 100 NW8       29.76S FOG
OKC/TINKER AFB TSTM      52  52 100 NW12      29.70F
STILLWATER     HVY RAIN  53  52  96 N6        29.73F FOG
GUTHRIE        LGT RAIN  53  52  96 NW7       29.75R FOG
$$

OKZ008-013-054>072-290900-
NORTHEAST OKLAHOMA

CITY           SKY/WX    TMP DP  RH WIND       PRES   REMARKS
TULSA          CLOUDY    61  59  93 W7G17     29.75R
TULSA/JONES    CLOUDY    61  57  87 VRB6      29.74S
PONCA CITY     CLOUDY    53  50  89 NE9       29.74R
BARTLESVILLE   HVY RAIN  57  55  93 S6        29.77R FOG
MUSKOGEE       CLOUDY    64  59  83 SE12      29.74F
$$

OKZ032-040>043-046>053-073>077-290900-
SOUTH CENTRAL/SOUTHEAST OKLAHOMA

CITY           SKY/WX    TMP DP  RH WIND       PRES   REMARKS
ARDMORE/DWNTWN CLOUDY    61  55  82 NW6G16    29.66R
MCALESTER      CLOUDY    72  58  61 S7        29.71F
$$




USA.gov is the U.S. government's official web portal to all federal, state and local government web resources and services.